Zurück zum Katalog

COSMOS 1860

AktivMilitärLEO
NORAD 18122·PAYLOAD·🇷🇺 Russia

Gestartet Jun 18, 1987 von Baikonur Cosmodrome

Loading…

Nächste Überflüge (nächste 24 Stunden)

TLE

AktuellSource: Space-Track

Epoche: Sep 14, 2026, 03:09 UTC

1 18122U 87052A   26257.13175811 -.00000046  00000-0  37600-4 0  9996
2 18122  65.0102 158.8275 0047352 182.6638 177.4178 13.84973011985139

Verfolge COSMOS 1860 in Echtzeit mit AllMySat

Download on the App Store